User: anonymous   Login
Location: Tel Aviv
(32.0670°N, 34.7670°E)
Time: 00:11:04
(UTC+03:00)
Language:

Max Valier Satellite - Orbit

View from above orbital plane
View from above orbital plane
View from above satellite
View from above satellite

Ground track
Ground track

The orbit data is extracted from the following two-line orbital elements,

1 42778U 17036P   24106.59669547  .00121645  00000-0  11470-2 0  9993
2 42778  97.1104 143.2627 0006146  97.6980 262.4980 15.66653762379718
Epoch (UTC): 15 April 2024 14:19:14
Eccentricity: 0.0006146
inclination: 97.1104°
perigee height: 364 km
apogee height: 372 km
right ascension of ascending node: 143.2627°
argument of perigee: 97.6980°
revolutions per day: 15.66653762
mean anomaly at epoch: 262.4980°
orbit number at epoch: 37971

The dashed part of the orbit path shows where the satellite is in the earth's shadow,  

DLR